DateTimeUTC,F1_A11,F1_S11,BsB_S11,BsG_S11,BsR_S11,BbsB_S11,BbsG_S11,BbsR_S11,BaB_A11,BaG_A11,BaR_A11,Tu_S11,T_S11,Uu_S11,U_S11,P_S11,T1_A11
2021-02-08T07:00:00Z,00000200,21000000,,,,,,,-000.17,-000.18,-000.12,15.4,23.0,,00.0,0657.1,30.9
2021-02-08T07:01:00Z,00000200,21000000,,,,,,,0000.14,0000.36,0000.54,15.4,23.0,,00.0,0657.1,30.9
2021-02-08T07:02:00Z,00000200,21000000,,,,,,,0000.14,-000.14,-000.25,15.4,23.0,,00.0,0657.1,30.9
2021-02-08T07:03:00Z,00000200,61000000,,,,,,,0000.29,0000.21,0000.36,15.4,23.0,,00.0,0657.1,30.9
2021-02-08T07:04:00Z,00000200,41000000,0001.91,0001.13,0000.56,-000.13,0000.19,0000.31,0000.38,0000.41,0000.30,15.8,22.9,,00.0,0657.9,30.9
2021-02-08T07:05:00Z,00000200,01000000,0001.45,0001.07,0000.43,0000.00,0000.36,0000.40,0000.15,-000.12,-000.13,15.9,22.8,,00.0,0657.9,30.9
2021-02-08T07:06:00Z,00000200,01000000,0001.87,0001.10,0000.32,0000.75,0000.20,0000.17,0000.16,0000.45,0000.20,15.9,22.8,,00.0,0657.9,30.9
2021-02-08T07:07:00Z,00000200,01000000,0001.22,0001.07,0000.45,0000.43,-000.06,0000.15,0000.54,0000.61,-000.22,15.8,22.8,,00.0,0657.8,30.9
2021-02-08T07:08:00Z,00000200,01000000,0002.11,0001.21,0000.30,0000.16,0000.23,0000.28,0000.22,-000.04,0000.77,15.7,22.7,,00.0,0657.8,30.9
2021-02-08T07:09:00Z,00000200,01000000,0002.23,0000.90,0000.41,0000.52,0000.19,0000.35,0000.25,0000.49,0000.06,15.7,22.7,,00.0,0657.8,30.9
2021-02-08T07:10:00Z,00000200,01000000,0001.97,0001.00,0000.44,0000.68,-000.13,0000.19,0000.41,-000.00,0000.11,15.6,22.6,,00.0,0657.8,30.9
2021-02-08T07:11:00Z,00000200,01000000,0001.44,0001.27,0000.42,0000.40,-000.21,0000.37,0000.40,0000.30,0000.32,15.5,22.6,,00.0,0657.8,30.9
2021-02-08T07:12:00Z,00000200,01000000,0002.09,0000.87,0000.73,0000.22,-000.08,0000.27,0000.17,0000.63,0000.11,15.5,22.6,,00.0,0657.8,30.9
2021-02-08T07:13:00Z,00000200,01000000,0001.83,0000.86,0000.58,0000.11,0000.22,0000.09,0000.59,0000.28,0000.25,15.4,22.5,,00.0,0657.7,30.9
2021-02-08T07:14:00Z,00000200,01000000,0002.12,0001.25,0000.63,0000.42,0000.35,0000.14,0000.53,0000.31,0000.44,15.4,22.5,,00.0,0657.7,30.8
2021-02-08T07:15:00Z,00000200,01000000,0002.02,0001.10,0000.49,0000.74,-000.01,0000.03,0000.34,0000.37,0000.28,15.4,22.5,,00.0,0657.7,30.8
2021-02-08T07:16:00Z,00000200,01000000,0002.08,0000.96,0000.64,0000.44,0000.09,0000.38,0000.69,0000.43,0000.65,15.4,22.5,,00.0,0657.7,30.9
2021-02-08T07:17:00Z,00000200,01000000,0001.48,0001.15,0000.62,0000.02,0000.17,-000.02,0000.33,0000.98,0000.20,15.5,22.5,,00.0,0657.7,30.9
2021-02-08T07:18:00Z,00000200,01000000,0001.60,0001.14,0000.09,0000.61,0000.41,-000.03,0000.74,0000.02,0000.27,15.5,22.5,,00.0,0657.7,30.9
2021-02-08T07:19:00Z,00000200,01000000,0001.62,0000.94,0000.38,-000.06,0000.09,0000.39,0000.02,0000.40,0000.21,15.6,22.5,,00.0,0657.7,30.9
2021-02-08T07:20:00Z,00000200,01000000,0001.55,0001.08,0000.40,0000.27,-000.17,0000.43,0000.48,-000.00,0000.28,15.7,22.5,,00.0,0657.8,30.9
2021-02-08T07:21:00Z,00000200,01000000,0001.29,0001.47,0000.81,0000.09,-000.05,0000.06,0000.40,0000.48,0000.13,15.7,22.6,,00.0,0657.8,30.9
2021-02-08T07:22:00Z,00000200,01000000,0002.01,0000.83,0000.86,0000.12,0000.34,0000.34,0000.30,0000.46,0000.41,15.8,22.6,,00.0,0657.8,30.9
2021-02-08T07:23:00Z,00000200,01000000,0002.19,0001.11,0000.39,0000.33,0000.28,0000.51,0000.01,-000.12,-000.21,15.8,22.6,,00.0,0657.8,30.9
2021-02-08T07:24:00Z,00000200,01000000,0001.59,0000.73,0000.62,0000.43,0000.03,0000.08,0000.21,0000.21,0000.24,15.9,22.6,,00.0,0657.8,30.9
2021-02-08T07:25:00Z,00000200,01000000,0001.22,0000.95,0000.52,0000.31,0000.07,0000.23,0000.54,0000.35,-000.01,15.8,22.6,,00.0,0657.8,30.9
2021-02-08T07:26:00Z,00000200,01000000,0001.70,0000.96,0000.52,0000.31,0000.03,0000.24,-000.28,-000.17,0000.25,15.8,22.6,,00.0,0657.8,30.9
2021-02-08T07:27:00Z,00000200,01000000,0001.88,0001.34,0000.42,0000.40,0000.28,0000.38,0000.60,0000.54,0000.16,15.7,22.6,,00.0,0657.8,30.9
2021-02-08T07:28:00Z,00000200,01000000,0001.45,0001.25,0000.49,0000.14,0000.13,0000.37,0000.11,0000.11,-000.21,15.6,22.5,,00.0,0657.9,30.9
2021-02-08T07:29:00Z,00000200,01000000,0001.90,0001.18,0000.59,-000.26,0000.38,0000.37,0000.31,0000.39,0000.40,15.6,22.5,,00.0,0657.9,30.9
2021-02-08T07:30:00Z,00000200,01000000,0001.42,0001.33,0000.75,-000.02,0000.13,0000.27,0000.50,0000.37,0000.41,15.6,22.5,,00.0,0657.8,30.9
2021-02-08T07:31:00Z,00000200,01000000,0002.18,0001.02,0000.45,0000.90,0000.14,0000.14,0000.54,0000.13,0000.15,15.6,22.5,,00.0,0657.8,30.9
2021-02-08T07:32:00Z,00000200,01000000,0002.00,0000.65,0000.47,-000.39,-000.04,0000.27,0000.12,0000.56,0000.23,15.7,22.5,,00.0,0657.8,30.9
2021-02-08T07:33:00Z,00000200,01000000,0001.89,0001.00,0000.67,0000.39,-000.16,0000.35,0000.53,0000.33,0000.48,15.7,22.5,,00.0,0657.8,30.9
2021-02-08T07:34:00Z,00000200,01000000,0001.61,0001.13,0000.69,0000.29,0000.14,0000.11,0000.46,0000.43,0000.21,15.8,22.6,,00.0,0657.7,30.9
2021-02-08T07:35:00Z,00000200,01000000,0001.46,0000.77,0000.51,-000.01,-000.03,0000.09,0000.46,0000.02,0000.21,15.8,22.6,,00.0,0657.7,30.9
2021-02-08T07:36:00Z,00000200,01000000,0001.95,0001.44,0000.39,0000.12,0000.15,0000.13,0000.37,0000.60,0000.34,15.9,22.6,,00.0,0657.7,30.9
2021-02-08T07:37:00Z,00000200,01000000,0001.98,0001.15,0000.36,0000.09,0000.11,0000.06,0000.49,0000.53,0000.32,16.0,22.7,,00.0,0657.6,30.9
2021-02-08T07:38:00Z,00000200,01000000,0001.42,0001.10,0000.91,0000.41,0000.26,0000.22,0000.38,0000.31,0000.15,16.0,22.7,,00.0,0657.7,30.9
2021-02-08T07:39:00Z,00000200,01000000,0002.08,0001.15,0000.47,0000.39,0000.23,0000.39,0000.12,0000.00,-000.06,16.1,22.7,,00.0,0657.7,30.9
2021-02-08T07:40:00Z,00000200,01000000,0001.59,0000.93,0000.56,0000.61,0000.24,0000.34,0000.21,0000.33,-000.04,16.1,22.7,,00.0,0657.7,30.9
2021-02-08T07:41:00Z,00000200,01000000,0002.10,0001.20,0000.30,0000.08,0000.34,0000.12,0000.08,0000.09,0000.17,16.0,22.7,,00.0,0657.6,30.9
2021-02-08T07:42:00Z,00000200,01000000,0001.12,0000.64,0000.39,0000.33,0000.31,0000.15,0000.26,0000.22,0000.22,15.9,22.6,,00.0,0657.6,30.9
2021-02-08T07:43:00Z,00000200,01000000,0001.02,0000.85,0000.56,0000.69,0000.29,-000.19,0000.13,0000.17,0000.09,15.9,22.6,,00.0,0657.6,30.9
2021-02-08T07:44:00Z,00000200,01000000,0001.23,0000.92,0000.60,-000.12,0000.42,0000.34,0000.75,0000.08,0000.37,15.8,22.6,,00.0,0657.7,30.9
2021-02-08T07:45:00Z,00000200,01000000,0002.14,0000.97,0000.55,0000.31,0000.10,0000.02,0000.27,0000.37,0000.37,15.8,22.6,,00.0,0657.7,30.9
2021-02-08T07:46:00Z,00000200,01000000,0001.73,0001.00,0000.47,0000.62,0000.06,0000.32,0000.49,0000.63,-000.02,15.8,22.6,,00.0,0657.7,30.9
2021-02-08T07:47:00Z,00000200,01000000,0001.78,0001.07,0000.55,-000.08,0000.03,0000.24,0000.45,0000.41,0000.51,15.9,22.6,,00.0,0657.8,30.9
2021-02-08T07:48:00Z,00000200,01000000,0002.03,0000.83,0000.50,0000.36,0000.30,0000.23,0000.28,0000.03,0000.30,15.9,22.6,,00.0,0657.8,30.9
2021-02-08T07:49:00Z,00000200,01000000,0002.09,0000.77,0000.41,0000.10,0000.07,0000.18,0000.27,0000.69,0000.24,16.0,22.7,,00.0,0657.9,30.9
2021-02-08T07:50:00Z,00000200,01000000,0002.03,0000.85,0000.77,0000.63,0000.11,0000.34,0000.34,0000.31,0000.20,16.1,22.7,,00.0,0657.9,30.9
2021-02-08T07:51:00Z,00000200,01000000,0000.79,0000.75,0000.15,0000.40,0000.19,-000.07,0000.41,0000.16,0000.22,16.1,22.7,,00.0,0657.9,30.9
2021-02-08T07:52:00Z,00000200,01000000,0001.84,0000.97,0000.70,0000.66,-000.17,0000.61,-000.02,0000.46,0000.02,16.1,22.8,,00.0,0657.8,30.9
2021-02-08T07:53:00Z,00000200,01000000,0002.01,0000.97,0000.39,0000.42,0000.16,0000.24,0000.79,-000.04,0000.21,16.2,22.8,,00.0,0657.8,30.9
2021-02-08T07:54:00Z,00000200,01000000,0001.44,0000.84,0000.33,0000.07,-000.06,0000.07,-000.29,0000.21,-000.04,16.1,22.7,,00.0,0657.8,30.9
2021-02-08T07:55:00Z,00000200,01000000,0001.79,0000.99,0000.65,0000.20,0000.32,0000.45,0000.77,0000.01,0000.46,16.1,22.7,,00.0,0657.7,30.9
2021-02-08T07:56:00Z,00000200,01000000,0001.93,0000.89,0000.31,0000.35,0000.02,0000.01,-000.07,0000.27,-000.33,16.0,22.7,,00.0,0657.7,30.9
2021-02-08T07:57:00Z,00000200,41000000,,,,,,,0000.15,0000.35,0000.21,16.0,22.7,,00.0,0657.7,30.9
2021-02-08T07:58:00Z,00000200,61000000,,,,,,,-000.04,-000.19,-000.02,15.5,22.8,,00.0,0656.7,30.9
2021-02-08T07:59:00Z,00000200,21000000,,,,,,,-000.11,-000.21,-000.04,15.4,22.9,,00.0,0656.7,30.9
